Location: Poughquag
(41.6090°N, 73.6820°W)
Time: 10:18:41
(UTC-05:00)

SR - Pass Details

Date: 14 December 2023
Orbit: 574 x 868 km, 66.7° (Epoch: 25 February)

Event Time Altitude Azimuth Distance (km) Brightness Sun altitude
Rises 10:44:29 0° 259° (W) 3,344 ? 23.5°
Reaches altitude 10° 10:47:42 10° 278° (W) 2,456 ? 23.6°
Maximum altitude 10:51:32 18° 320° (NW) 1,978 ? 23.8°
Drops below altitude 10° 10:55:28 10° 3° (N) 2,518 ? 24.0°
Sets 10:58:50 0° 22° (NNE) 3,462 ? 24.1°
